Location: Laverne
(36.7100°N, 99.8930°W)
Time: 21:31:29
(UTC-05:00)

Daily predictions for brighter satellites

Satellite Brightness Start Highest point End
(mag) Time Altitude Azimuth Time Altitude Azimuth Time Altitude Azimuth
Cosmos 2082 Rocket 3.4 20:18:08 10° N 20:22:35 23° ENE 20:27:01 10° ESE
SeaSat 1 2.9 20:20:56 10° SE 20:25:33 42° ENE 20:30:11 10° N
CZ-2C R/B 2.1 20:24:07 10° NNE 20:25:35 21° E 20:27:12 10° SE
HJ-1C 3.9 20:24:33 10° SE 20:27:45 40° ENE 20:30:58 10° N
Meteor 1-24 Rocket 3.7 20:22:23 10° N 20:27:57 77° E 20:33:42 10° SSE
Cosmos 1758 4.1 20:24:29 10° SSE 20:27:58 30° E 20:31:27 10° NNE
METEOR-M 4.4 20:24:00 10° S 20:29:19 76° WSW 20:34:40 10° NNW
ALOS 2.3 20:25:23 10° SSE 20:29:58 58° ENE 20:34:34 10° N
GPS 2-05 Rocket1 3.3 20:29:32 10° WSW 20:32:57 48° SSE 20:36:15 11° E
Cosmos 1953 3.0 20:31:24 10° SSE 20:35:04 34° E 20:38:45 10° NNE
Cosmos 1271 Rocket 4.3 20:33:08 10° SE 20:35:42 17° E 20:38:16 10° NE
SL-27 R/B 2.7 20:33:06 10° NNW 20:36:42 75° WSW 20:40:19 10° S
Helios 1B rocket 3.6 20:36:54 10° NE 20:40:05 21° E 20:43:14 10° SE
Cosmos 1766 3.7 20:37:55 10° SSW 20:41:45 65° W 20:45:37 10° N
Okean 3 Rocket 3.7 20:37:46 10° N 20:42:05 53° E 20:46:24 10° SSE
Cosmos 1934 Rocket 4.2 20:37:14 10° S 20:43:21 77° W 20:49:27 10° N
Lacrosse 4 Rocket 4.4 20:42:51 10° W 20:45:00 14° NW 20:47:09 10° NNW
Abrixas 3.1 20:42:34 10° NW 20:45:14 36° NNE 20:46:58 18° E
Cosmos 1076 Rocket 4.1 20:42:19 10° NNE 20:46:15 35° E 20:50:08 10° SE
Tiangong 1 2.0 20:43:38 10° WNW 20:46:24 37° SSW 20:48:52 12° SE
Meteor 1-29 4.4 20:45:54 10° NE 20:48:20 18° E 20:49:25 16° ESE
Cosmos 1674 3.8 20:46:29 10° NNE 20:49:35 23° ENE 20:51:30 16° ESE
COSMOS 2487 3.4 20:52:12 10° N 20:55:22 29° ENE 20:56:56 21° ESE
Helios 1A 3.8 20:53:10 15° SE 20:55:54 30° ENE 20:59:34 10° N
Lacrosse 5 rocket 3.1 20:54:10 10° N 20:56:41 16° NE 20:58:14 13° ENE
ISS -3.9 20:56:23 10° SW 20:59:36 67° SE 21:02:04 16° NE
Cosmos 1818 3.6 20:55:09 10° NNW 21:00:35 66° ENE 21:05:09 14° SE
USA 186 2.5 21:04:49 22° NE 21:04:49 22° NE 21:06:01 10° NNE
Cosmos 1269 Rocket 4.2 20:58:52 10° N 21:04:03 52° ENE 21:08:17 15° SE
GP-B 3.4 21:02:02 10° SSE 21:06:15 44° E 21:10:29 10° NNE
CZ-3B DEB 4.4 20:56:50 10° WSW 21:07:08 37° NW 21:12:18 10° NNE
Meteor 1-4 Rocket 2.5 21:03:43 10° SSW 21:07:10 79° W 21:10:39 10° N
Cosmos 1766 Rocket 3.9 21:03:24 10° N 21:07:44 46° E 21:11:01 16° SSE
CZ-2D R/B 3.2 21:04:02 10° SSE 21:07:52 69° ENE 21:11:44 10° N
H-II Stage 2 2.8 21:06:57 10° SW 21:08:27 17° S 21:08:28 17° S
Cosmos 372 Rocket 3.8 21:04:27 10° S 21:09:32 76° ESE 21:14:41 10° NNE
Cosmos 468 4.5 21:04:17 10° NNW 21:09:32 87° ENE 21:14:48 10° SSE
Cosmos-2242 3.1 21:07:05 10° SSE 21:11:10 49° E 21:15:17 10° NNE
In-Cosmos 22 4.5 21:06:14 10° NNW 21:11:29 66° W 21:16:41 10° S
Cosmos 1805 4.0 21:08:15 10° SSW 21:12:04 55° W 21:15:55 10° N
Resurs 01 Rocket 1.8 21:09:44 10° S 21:14:07 72° WSW 21:18:33 10° NNW
RESURS DK-1 4.5 21:11:22 10° NW 21:14:51 27° WSW 21:18:21 10° SSW
Cosmos 158 Rocket 4.0 21:12:31 10° N 21:17:37 57° ENE 21:20:48 23° SE
Cosmos 1544 4.4 21:14:27 10° SSW 21:17:55 43° W 21:21:26 10° N
Aurora 2 Rocket 4.5 21:13:34 10° SW 21:19:30 27° S 21:21:52 20° SSE
Meteor 1-21 Rocket 4.2 21:15:59 10° N 21:21:52 83° E 21:27:47 10° S
USA 215 3.4 21:16:01 10° NE 21:22:18 49° SE 21:28:34 10° SSW
Lacrosse 5 4.3 21:21:51 10° W 21:25:34 20° NNW 21:29:16 10° NNE
Cosmos 1833 Rocket 2.6 21:23:10 10° NNW 21:28:49 72° ENE 21:31:55 27° SSE
Cosmos 1470 2.6 21:25:11 10° S 21:29:09 79° E 21:33:08 10° N
Spot 2 Rocket 4.1 21:24:33 10° S 21:29:33 57° W 21:34:36 10° NNW
Cosmos 2100 Rocket 3.9 21:25:51 10° S 21:32:07 75° E 21:38:29 10° N
Cosmos 1733 3.0 21:28:40 10° S 21:32:31 83° E 21:36:24 10° N
Cosmos 1743 Rocket 3.8 21:34:45 10° N 21:38:55 47° ENE 21:38:55 47° ENE
ATLAS 5 CENTAUR R/B 2.3 21:36:30 10° SW 21:41:04 58° NW 21:46:03 10° NNE
Cosmos 1340 Rocket 2.6 21:38:51 10° N 21:42:52 72° E 21:42:57 71° E
SJ-11-01 4.2 21:46:37 55° SE 21:47:30 70° ENE 21:52:13 10° N
Envisat 2.8 21:45:57 42° SSE 21:47:40 77° ENE 21:52:45 10° N
Cosmos 1802 Rocket 3.8 21:48:35 10° S 21:54:42 89° E 22:00:55 10° N
Gblst 52 Del rocket 4.1 21:49:02 10° SW 21:55:02 62° SE 21:55:47 56° E
H-2A R/B 4.3 22:02:14 13° NE 22:02:14 13° NE 22:03:10 10° NNE
ERS-1 Rocket 3.2 22:03:18 52° NE 22:03:18 52° NE 22:07:37 10° N
Cosmos 2082 Rocket 3.0 22:01:29 10° NW 22:06:54 47° WSW 22:09:47 25° SSW
Cosmos 2061 Rocket 4.4 22:03:58 10° SSW 22:10:17 64° W 22:16:40 10° N
Cosmos 1842 Rocket 4.1 22:11:40 52° N 22:11:40 52° N 22:15:03 10° N
Meteor 1-11 4.3 22:06:35 10° N 22:11:31 59° NE 22:11:31 59° NE
Meteor 1-16 Rocket 4.3 22:11:25 31° SSW 22:14:22 84° W 22:20:20 10° N
Cosmos 1939 Rocket 3.9 22:20:09 45° WNW 22:20:09 45° WNW 22:23:35 10° NNW
Cosmos 1864 Rocket 4.5 22:32:41 71° SW 22:33:21 80° W 22:39:41 10° N
Lacrosse 5 rocket 3.6 22:32:29 10° NW 22:33:58 22° NW 22:33:58 22° NW
ISS -0.4 22:34:14 10° WNW 22:34:47 12° WNW 22:34:47 12° WNW
Cosmos 2251 Rocket 4.2 22:37:46 10° NNW 22:41:56 51° NW 22:41:56 51° NW
Cosmos 2369 Rocket 4.5 23:00:18 14° NNE 23:00:18 14° NNE 23:01:05 10° NNE
USA 215 4.1 22:59:03 10° NE 23:05:13 45° NW 23:11:21 10° WSW
USA 267 4.4 23:38:11 37° NNW 23:38:11 37° NNW 23:42:08 10° NW
H-2A R/B 4.5 23:42:52 18° NNW 23:42:52 18° NNW 23:44:14 10° NNW
